[Iaude] MPEC S52: 2016 SJ1

mpec at si.edu mpec at si.edu
Thu Sep 29 16:06:05 EDT 2016


M.P.E.C. 2016-S52                                Issued 2016 Sept. 26, 18:10 UT
 
     The Minor Planet Electronic Circulars contain information on unusual
         minor planets and routine data on comets.  They are published
    on behalf of Division F of the International Astronomical Union by the
          Minor Planet Center, Smithsonian Astrophysical Observatory,
                          Cambridge, MA 02138, U.S.A.

             Prepared using the Tamkin Foundation Computer Network

                              MPC at CFA.HARVARD.EDU
            URL http://www.minorplanetcenter.net/    ISSN 1523-6714


                                   2016 SJ1
 
Observations:
     K16S01J* C2016 09 22.52938 02 23 03.450-15 17 48.89         21.0 iLES052F51
     K16S01J  C2016 09 22.54099 02 23 06.487-15 17 54.30         20.7 iLES052F51
     K16S01J  C2016 09 22.55270 02 23 09.510-15 17 59.49         20.6 iLES052F51
     K16S01J  C2016 09 22.56434 02 23 12.552-15 18 05.29         20.6 iLES052F51
     K16S01J "C2016 09 23.37161902 27 00.87 -15 24 21.3          19.0 RtES052705
     K16S01J "C2016 09 23.37263202 27 01.17 -15 24 21.3          19.1 RtES052705
     K16S01J "C2016 09 23.37364502 27 01.43 -15 24 21.6          18.8 RtES052705
     K16S01J "C2016 09 24.36727702 31 59.21 -15 31 49.4          20.0 RtES052705
     K16S01J "C2016 09 24.36829602 31 59.50 -15 31 49.8          20.1 RtES052705
     K16S01J "C2016 09 24.36931502 31 59.85 -15 31 50.4          19.9 RtES052705
     K16S01J KC2016 09 25.27802 02 36 52.05 -15 38 24.7          19.7 RoES052291
     K16S01J KC2016 09 25.28010 02 36 52.65 -15 38 25.6          20.3 RoES052291
     K16S01J KC2016 09 25.28218 02 36 53.37 -15 38 27.2          20.3 RoES052291
     K16S01J  C2016 09 25.40709 02 37 33.12 -15 39 23.1          20.0 RoES052926
     K16S01J  C2016 09 25.41264 02 37 34.82 -15 39 24.5          20.2 RoES052926
     K16S01J  C2016 09 25.41818 02 37 36.61 -15 39 27.2          20.0 RoES052926
 
Observer details:
291 LPL/Spacewatch II.  Observer T. H. Bressi.  1.8-m f/2.7 reflector + CCD.
705 Apache Point.  Observers K. Nault, M. Hammergren, M. Brucker.  Measurer
    K. Nault.  3.5-m f/10 reflector + CCD.
926 Tenagra II Observatory.  Observers M. Schwartz, P. R. Holvorcem.  Measurer
    M. Schwartz.  0.81-m f/7 Ritchey-Chretien + CCD.
F51 Pan-STARRS 1, Haleakala.  Observers B. Gibson, T. Goggia, S. Kahale,
    A. Schultz, M. Willman.  Measurers K. Chambers, S. Chastel, L. Denneau,
    H. Flewelling, M. Huber, E. Lilly, E. Magnier, R. Wainscoat, C. Waters,
    R. Weryk.  1.8-m Ritchey-Chretien + CCD.
 
Orbital elements:
2016 SJ1                                                 Earth MOID = 0.0433 AU
Epoch 2016 July 31.0 TT = JDT 2457600.5                 MPC
M 335.68910              (2000.0)            P               Q
n   0.21886611     Peri.   27.92437     +0.23023539     -0.96794005
a   2.7269910      Node    48.94979     +0.86619441     +0.15681123
e   0.6850110      Incl.    7.65202     +0.44350750     +0.19622001
P   4.50           H   22.1           G   0.15           U   8
Residuals in seconds of arc
160922 F51  0.2-  0.1+    160923 705  0.6-  0.4+    160925 291  0.3+  0.5-
160922 F51  0.2+  0.0     160924 705  0.2+  0.0     160925 926  0.3+  0.4-
160922 F51  0.0   0.2+    160924 705  0.1+  0.1+    160925 926  0.7-  0.6+
160922 F51  0.2+  0.4-    160924 705  0.8+  0.0     160925 926  0.3-  0.2+
160923 705  0.6-  0.2-    160925 291  0.5+  0.0
160923 705  0.3-  0.2+    160925 291  0.5-  0.1+

Ephemeris:
2016 SJ1                 a,e,i = 2.73, 0.69, 8                   q = 0.8590
Date    TT    R. A. (2000) Decl.     Delta      r     Elong.  Phase     V
2016 08 27    01 13 21.0 -12 26 06   0.5393  1.4578   138.3    27.5    22.8
...
2016 09 11    01 44 10.7 -13 51 00   0.3600  1.3113   142.7    27.7    21.7
...
2016 09 19    02 08 34.1 -14 50 06   0.2758  1.2346   142.4    29.7    21.1
...
2016 09 25    02 35 19.1 -15 35 57   0.2182  1.1784   140.0    33.1    20.5
2016 09 26    02 40 54.9 -15 43 01   0.2091  1.1692   139.4    33.9    20.5
2016 09 27    02 46 56.6 -15 49 41   0.2002  1.1601   138.6    34.8    20.4
...
2016 10 03    03 35 28.4 -16 10 26   0.1510  1.1064   131.4    42.7    19.9
...
2016 10 11    05 35 12.8 -13 30 15   0.1051  1.0391   110.1    64.4    19.6
...
2016 10 26    10 04 47.4 +03 47 49   0.1428  0.9337    61.2   111.1    22.0

A. U. Tomatic                (C) Copyright 2016 MPC           M.P.E.C. 2016-S52




More information about the Iaude mailing list